TimeCDT,TemperatureF,Dew PointF,Humidity,Sea Level PressureIn,VisibilityMPH,Wind Direction,Wind SpeedMPH,Gust SpeedMPH,PrecipitationIn,Events,Conditions,WindDirDegrees,DateUTC
12:53 AM,82.9,72.0,69,29.90,10.0,SSE,9.2,-,N/A,,Mostly Cloudy,160,2013-07-27 05:53:00
1:53 AM,82.0,73.0,74,29.91,10.0,South,4.6,-,N/A,,Partly Cloudy,180,2013-07-27 06:53:00
2:51 AM,82.4,73.4,74,30.01,10.0,North,4.6,-,N/A,,Mostly Cloudy,350,2013-07-27 07:51:00
2:53 AM,82.0,73.0,74,29.96,10.0,NNW,4.6,-,N/A,,Overcast,340,2013-07-27 07:53:00
3:12 AM,82.4,73.4,74,29.97,9.0,Calm,Calm,-,0.00,Rain,Light Rain,0,2013-07-27 08:12:00
3:53 AM,80.1,75.0,85,29.88,9.0,WNW,3.5,-,0.00,Rain,Light Rain,290,2013-07-27 08:53:00
4:53 AM,79.0,75.0,88,29.88,9.0,Calm,Calm,-,0.00,,Clear,0,2013-07-27 09:53:00
5:53 AM,78.1,75.0,90,29.88,8.0,Calm,Calm,-,N/A,,Clear,0,2013-07-27 10:53:00
6:53 AM,77.0,73.4,89,29.90,10.0,Calm,Calm,-,N/A,,Clear,0,2013-07-27 11:53:00
7:53 AM,80.1,73.9,81,29.92,7.0,Calm,Calm,-,N/A,,Partly Cloudy,0,2013-07-27 12:53:00
8:53 AM,81.0,73.0,77,29.92,8.0,SE,3.5,-,N/A,,Clear,130,2013-07-27 13:53:00
9:53 AM,84.9,73.0,67,29.92,10.0,Calm,Calm,-,N/A,,Clear,0,2013-07-27 14:53:00
10:53 AM,87.1,73.9,65,29.91,10.0,Calm,Calm,-,N/A,,Partly Cloudy,0,2013-07-27 15:53:00
11:53 AM,90.0,73.9,59,29.91,10.0,NNE,8.1,-,N/A,,Partly Cloudy,20,2013-07-27 16:53:00
12:53 PM,93.0,73.9,54,29.91,10.0,NE,9.2,-,N/A,,Scattered Clouds,40,2013-07-27 17:53:00
1:53 PM,91.9,73.9,55,29.89,10.0,NE,9.2,-,N/A,,Overcast,40,2013-07-27 18:53:00
2:53 PM,91.9,73.0,54,29.88,10.0,NE,10.4,16.1,N/A,,Overcast,40,2013-07-27 19:53:00
3:53 PM,91.9,73.0,54,29.86,10.0,NE,12.7,18.4,N/A,,Mostly Cloudy,40,2013-07-27 20:53:00
4:53 PM,95.0,72.0,47,29.82,10.0,NE,13.8,17.3,N/A,,Clear,50,2013-07-27 21:53:00
5:53 PM,91.9,71.1,50,29.82,10.0,NE,8.1,21.9,N/A,,Clear,50,2013-07-27 22:53:00
6:53 PM,91.9,69.1,47,29.81,10.0,NE,13.8,21.9,N/A,,Clear,40,2013-07-27 23:53:00
7:53 PM,90.0,69.1,50,29.85,10.0,East,10.4,-,N/A,,Clear,80,2013-07-28 00:53:00
8:53 PM,87.1,68.0,53,29.86,10.0,East,8.1,-,N/A,,Clear,80,2013-07-28 01:53:00
9:53 PM,86.0,68.0,55,29.86,10.0,ENE,9.2,-,N/A,,Clear,60,2013-07-28 02:53:00
10:53 PM,82.0,69.1,65,29.86,10.0,East,5.8,-,N/A,,Clear,90,2013-07-28 03:53:00
11:53 PM,81.0,69.1,67,29.88,10.0,ENE,5.8,-,N/A,,Clear,60,2013-07-28 04:53:00